| time (UTC) | temp F | wind direction | speed MPH | gust MPH | rain 1hr in | rain 24hr in | rain mn in | humidity % | barometer mb |
| 20260905204802 | 84 | 120 | 2.0 | 6.0 | 0.00 | 0.00 | 0.00 | 55 | 1016.7 |
| 20260905204302 | 84 | 118 | 2.0 | 6.0 | 0.00 | 0.00 | 0.00 | 56 | 1016.7 |
| 20260905203801 | 84 | 142 | 3.0 | 6.0 | 0.00 | 0.00 | 0.00 | 56 | 1016.8 |
| 20260905203301 | 84 | 131 | 3.0 | 6.0 | 0.00 | 0.00 | 0.00 | 56 | 1016.8 |
| 20260905202802 | 84 | 123 | 4.0 | 6.0 | 0.00 | 0.00 | 0.00 | 56 | 1016.9 |
| 20260905202301 | 83 | 118 | 2.0 | 9.0 | 0.00 | 0.00 | 0.00 | 57 | 1016.9 |
| 20260905201801 | 83 | 121 | 3.0 | 9.0 | 0.00 | 0.00 | 0.00 | 56 | 1017.0 |
| 20260905201300 | 83 | 94 | 4.0 | 6.0 | 0.00 | 0.00 | 0.00 | 55 | 1016.9 |
| 20260905200800 | 83 | 116 | 4.0 | 6.0 | 0.00 | 0.00 | 0.00 | 53 | 1016.9 |
| 20260905200300 | 83 | 131 | 3.0 | 5.0 | 0.00 | 0.00 | 0.00 | 53 | 1017.0 |
| 20260905195801 | 83 | 141 | 2.0 | 5.0 | 0.00 | 0.00 | 0.00 | 54 | 1017.0 |
| 20260905195300 | 83 | 96 | 3.0 | 7.0 | 0.00 | 0.00 | 0.00 | 54 | 1017.1 |
| 20260905194759 | 83 | 111 | 3.0 | 7.0 | 0.00 | 0.00 | 0.00 | 54 | 1017.1 |
| 20260905194300 | 83 | 110 | 3.0 | 7.0 | 0.00 | 0.00 | 0.00 | 54 | 1017.2 |
| 20260905193800 | 83 | 120 | 4.0 | 6.0 | 0.00 | 0.00 | 0.00 | 54 | 1017.3 |
| 20260905193259 | 83 | 130 | 3.0 | 6.0 | 0.00 | 0.00 | 0.00 | 54 | 1017.3 |
| 20260905192800 | 83 | 116 | 3.0 | 6.0 | 0.00 | 0.00 | 0.00 | 55 | 1017.4 |
| 20260905192300 | 82 | 130 | 3.0 | 7.0 | 0.00 | 0.00 | 0.00 | 55 | 1017.4 |
| 20260905191758 | 82 | 123 | 4.0 | 7.0 | 0.00 | 0.00 | 0.00 | 55 | 1017.4 |
| 20260905191745 | 82 | 125 | 2.0 | 5.0 | 0.00 | 0.00 | 0.00 | 55 | 1017.4 |
| 20260905190759 | 82 | 142 | 3.0 | 6.0 | 0.00 | 0.00 | 0.00 | 55 | 1017.5 |
| 20260905190259 | 82 | 116 | 3.0 | 6.0 | 0.00 | 0.00 | 0.00 | 56 | 1017.6 |
| 20260905185758 | 81 | 106 | 3.0 | 6.0 | 0.00 | 0.00 | 0.00 | 57 | 1017.6 |
| 20260905185259 | 81 | 148 | 3.0 | 6.0 | 0.00 | 0.00 | 0.00 | 57 | 1017.7 |
| 20260905184758 | 81 | 99 | 3.0 | 6.0 | 0.00 | 0.00 | 0.00 | 58 | 1017.7 |
| 20260905184257 | 81 | 104 | 2.0 | 7.0 | 0.00 | 0.00 | 0.00 | 59 | 1017.7 |
| 20260905183757 | 80 | 99 | 3.0 | 7.0 | 0.00 | 0.00 | 0.00 | 60 | 1017.7 |
| 20260905183257 | 80 | 124 | 2.0 | 7.0 | 0.00 | 0.00 | 0.00 | 62 | 1017.7 |
| 20260905182757 | 80 | 131 | 3.0 | 7.0 | 0.00 | 0.00 | 0.00 | 62 | 1017.8 |
| 20260905182256 | 79 | 114 | 2.0 | 5.0 | 0.00 | 0.00 | 0.00 | 63 | 1017.9 |
| 20260905181758 | 79 | 127 | 2.0 | 9.0 | 0.00 | 0.00 | 0.00 | 63 | 1017.8 |
| 20260905181257 | 79 | 111 | 4.0 | 9.0 | 0.00 | 0.00 | 0.00 | 64 | 1017.7 |
| 20260905180758 | 78 | 113 | 4.0 | 9.0 | 0.00 | 0.00 | 0.00 | 64 | 1017.8 |
| 20260905180257 | 78 | 96 | 3.0 | 9.0 | 0.00 | 0.00 | 0.00 | 66 | 1017.7 |
| 20260905175758 | 77 | 99 | 3.0 | 11.0 | 0.00 | 0.00 | 0.00 | 67 | 1017.7 |
| 20260905175257 | 76 | 90 | 5.0 | 11.0 | 0.00 | 0.00 | 0.00 | 68 | 1017.6 |
| 20260905174757 | 76 | 93 | 6.0 | 11.0 | 0.00 | 0.00 | 0.00 | 69 | 1017.6 |
| 20260905174256 | 76 | 93 | 7.0 | 12.0 | 0.00 | 0.00 | 0.00 | 70 | 1017.6 |
| 20260905174021 | 75 | 97 | 6.0 | 12.0 | 0.00 | 0.00 | 0.00 | 71 | 1017.5 |
| 20260905173255 | 75 | 93 | 8.0 | 12.0 | 0.00 | 0.00 | 0.00 | 72 | 1017.4 |
| 20260905172755 | 75 | 69 | 8.0 | 12.0 | 0.00 | 0.00 | 0.00 | 73 | 1017.4 |
| 20260905172255 | 74 | 96 | 8.0 | 13.0 | 0.00 | 0.00 | 0.00 | 74 | 1017.5 |
| 20260905171755 | 74 | 90 | 9.0 | 13.0 | 0.00 | 0.00 | 0.00 | 75 | 1017.4 |
| 20260905171256 | 74 | 82 | 9.0 | 12.0 | 0.00 | 0.00 | 0.00 | 75 | 1017.3 |
| 20260905170755 | 73 | 93 | 6.0 | 13.0 | 0.00 | 0.00 | 0.00 | 77 | 1017.3 |
| 20260905170255 | 73 | 102 | 7.0 | 13.0 | 0.00 | 0.00 | 0.00 | 76 | 1017.3 |
| 20260905165755 | 73 | 94 | 9.0 | 13.0 | 0.00 | 0.00 | 0.00 | 76 | 1017.4 |
| 20260905165248 | 73 | 94 | 9.0 | 13.0 | 0.00 | 0.00 | 0.00 | 77 | 1017.4 |
| 20260905164732 | 73 | 103 | 7.0 | 13.0 | 0.00 | 0.00 | 0.00 | 77 | 1017.3 |
| 20260905164231 | 73 | 63 | 9.0 | 13.0 | 0.00 | 0.00 | 0.00 | 78 | 1017.3 |
| 20260905163730 | 72 | 83 | 9.0 | 12.0 | 0.00 | 0.00 | 0.00 | 78 | 1017.3 |
| 20260905163232 | 72 | 83 | 9.0 | 12.0 | 0.00 | 0.00 | 0.00 | 77 | 1017.2 |
| 20260905162733 | 73 | 90 | 9.0 | 13.0 | 0.00 | 0.00 | 0.00 | 77 | 1017.1 |
| 20260905162230 | 73 | 94 | 9.0 | 13.0 | 0.00 | 0.00 | 0.00 | 76 | 1017.0 |
| 20260905161731 | 73 | 89 | 9.0 | 12.0 | 0.00 | 0.00 | 0.00 | 75 | 1017.0 |
| 20260905161231 | 73 | 89 | 8.0 | 12.0 | 0.00 | 0.00 | 0.00 | 74 | 1016.9 |
| 20260905160731 | 73 | 85 | 9.0 | 12.0 | 0.00 | 0.00 | 0.00 | 74 | 1016.8 |
| 20260905160231 | 73 | 92 | 6.0 | 10.0 | 0.00 | 0.00 | 0.00 | 72 | 1016.7 |
| 20260905155730 | 72 | 78 | 5.0 | 11.0 | 0.00 | 0.00 | 0.00 | 71 | 1016.7 |
| 20260905155227 | 72 | 55 | 7.0 | 12.0 | 0.00 | 0.00 | 0.00 | 72 | 1016.6 |
| 20260905154728 | 72 | 65 | 7.0 | 12.0 | 0.00 | 0.00 | 0.00 | 72 | 1016.6 |
| 20260905154451 | 71 | 69 | 6.0 | 11.0 | 0.00 | 0.00 | 0.00 | 72 | 1016.6 |
| 20260905153728 | 71 | 63 | 6.0 | 9.0 | 0.00 | 0.00 | 0.00 | 74 | 1016.6 |
| 20260905153225 | 71 | 66 | 6.0 | 9.0 | 0.00 | 0.00 | 0.00 | 75 | 1016.7 |
| 20260905152726 | 70 | 63 | 7.0 | 11.0 | 0.00 | 0.00 | 0.00 | 76 | 1016.6 |
| 20260905152223 | 70 | 55 | 6.0 | 11.0 | 0.00 | 0.00 | 0.00 | 76 | 1016.6 |
| 20260905151723 | 70 | 71 | 6.0 | 9.0 | 0.00 | 0.00 | 0.00 | 76 | 1016.5 |
| 20260905151223 | 70 | 39 | 7.0 | 9.0 | 0.00 | 0.00 | 0.00 | 76 | 1016.5 |
| 20260905150718 | 69 | 51 | 5.0 | 10.0 | 0.00 | 0.00 | 0.00 | 76 | 1016.5 |
| 20260905150219 | 69 | 44 | 5.0 | 10.0 | 0.00 | 0.00 | 0.00 | 77 | 1016.4 |
| 20260905145928 | 69 | 0 | 6.0 | 10.0 | 0.00 | 0.00 | 0.00 | 79 | 1016.4 |
| 20260905145202 | 68 | 63 | 4.0 | 7.0 | 0.00 | 0.00 | 0.00 | 80 | 1016.3 |
| 20260905144702 | 67 | 41 | 2.0 | 6.0 | 0.00 | 0.00 | 0.00 | 81 | 1016.2 |
| 20260905144202 | 67 | 73 | 2.0 | 6.0 | 0.00 | 0.00 | 0.00 | 82 | 1016.3 |
| 20260905143702 | 66 | 0 | 2.0 | 5.0 | 0.00 | 0.00 | 0.00 | 84 | 1016.2 |
| 20260905143202 | 66 | 0 | 2.0 | 5.0 | 0.00 | 0.00 | 0.00 | 84 | 1016.1 |
| 20260905142702 | 66 | 66 | 2.0 | 6.0 | 0.00 | 0.00 | 0.00 | 84 | 1016.0 |
| 20260905142425 | 65 | 56 | 3.0 | 6.0 | 0.00 | 0.00 | 0.00 | 85 | 1016.0 |
| 20260905141926 | 65 | 68 | 2.0 | 5.0 | 0.00 | 0.00 | 0.00 | 86 | 1016.0 |
| 20260905141204 | 65 | 23 | 1.0 | 5.0 | 0.00 | 0.00 | 0.00 | 86 | 1015.9 |
| 20260905140704 | 64 | 355 | 1.0 | 3.0 | 0.00 | 0.00 | 0.00 | 86 | 1015.9 |
| 20260905140203 | 64 | 37 | 2.0 | 4.0 | 0.00 | 0.00 | 0.00 | 86 | 1015.9 |
| 20260905135702 | 64 | 41 | 2.0 | 4.0 | 0.00 | 0.00 | 0.00 | 85 | 1015.7 |
| 20260905135203 | 64 | 27 | 1.0 | 4.0 | 0.00 | 0.00 | 0.00 | 85 | 1015.7 |
| 20260905134702 | 65 | 353 | 1.0 | 4.0 | 0.00 | 0.00 | 0.00 | 85 | 1015.5 |
| 20260905134203 | 65 | 20 | 2.0 | 4.0 | 0.00 | 0.00 | 0.00 | 85 | 1015.5 |
| 20260905133703 | 65 | 348 | 1.0 | 6.0 | 0.00 | 0.00 | 0.00 | 86 | 1015.4 |
| 20260905133202 | 65 | 72 | 3.0 | 10.0 | 0.00 | 0.00 | 0.00 | 86 | 1015.4 |
| 20260905132702 | 65 | 25 | 4.0 | 10.0 | 0.00 | 0.00 | 0.00 | 86 | 1015.4 |
| 20260905132202 | 65 | 51 | 6.0 | 10.0 | 0.00 | 0.00 | 0.00 | 85 | 1015.2 |
| 20260905131702 | 65 | 18 | 6.0 | 12.0 | 0.00 | 0.00 | 0.00 | 85 | 1015.2 |
| 20260905131202 | 65 | 30 | 6.0 | 12.0 | 0.00 | 0.00 | 0.00 | 85 | 1015.2 |
| 20260905130702 | 65 | 52 | 3.0 | 7.0 | 0.00 | 0.00 | 0.00 | 85 | 1015.2 |
| 20260905130202 | 65 | 0 | 3.0 | 7.0 | 0.00 | 0.00 | 0.00 | 84 | 1015.2 |
| 20260905125702 | 65 | 7 | 4.0 | 9.0 | 0.00 | 0.00 | 0.00 | 84 | 1015.1 |
| 20260905125202 | 65 | 45 | 4.0 | 9.0 | 0.00 | 0.00 | 0.00 | 84 | 1015.1 |
| 20260905124702 | 65 | 3 | 4.0 | 10.0 | 0.00 | 0.00 | 0.00 | 83 | 1015.1 |
| 20260905124202 | 65 | 42 | 5.0 | 10.0 | 0.00 | 0.00 | 0.00 | 83 | 1015.2 |
| 20260905123703 | 65 | 48 | 3.0 | 10.0 | 0.00 | 0.00 | 0.00 | 82 | 1015.1 |
| 20260905123203 | 65 | 37 | 3.0 | 7.0 | 0.00 | 0.00 | 0.00 | 81 | 1015.0 |
| 20260905122702 | 65 | 24 | 4.0 | 10.0 | 0.00 | 0.00 | 0.00 | 81 | 1015.0 |
| 20260905122202 | 65 | 347 | 4.0 | 10.0 | 0.00 | 0.00 | 0.00 | 81 | 1015.0 |
| 20260905121702 | 65 | 65 | 2.0 | 4.0 | 0.00 | 0.00 | 0.00 | 80 | 1014.9 |
| 20260905121202 | 65 | 39 | 2.0 | 4.0 | 0.00 | 0.00 | 0.00 | 80 | 1015.0 |
| 20260905120928 | 66 | 35 | 2.0 | 5.0 | 0.00 | 0.00 | 0.00 | 79 | 1014.9 |
| 20260905120204 | 66 | 320 | 2.0 | 5.0 | 0.00 | 0.00 | 0.00 | 79 | 1014.9 |
| 20260905115705 | 66 | 353 | 2.0 | 4.0 | 0.00 | 0.00 | 0.00 | 78 | 1014.9 |
| 20260905115202 | 66 | 48 | 2.0 | 4.0 | 0.00 | 0.00 | 0.00 | 77 | 1014.8 |
| 20260905114652 | 66 | 51 | 3.0 | 4.0 | 0.00 | 0.00 | 0.00 | 77 | 1014.8 |
| 20260905114155 | 66 | 0 | 0.0 | 0.0 | 0.00 | 0.00 | 0.00 | 77 | 1014.7 |
| 20260905113650 | 66 | 0 | 0.0 | 0.0 | 0.00 | 0.00 | 0.00 | 77 | 1014.7 |
| 20260905113148 | 67 | 0 | 0.0 | 2.0 | 0.00 | 0.00 | 0.00 | 77 | 1014.7 |
| 20260905112910 | 67 | 0 | 0.0 | 3.0 | 0.00 | 0.00 | 0.00 | 77 | 1014.7 |
| 20260905112147 | 66 | 0 | 1.0 | 3.0 | 0.00 | 0.00 | 0.00 | 77 | 1014.8 |
| 20260905111907 | 66 | 0 | 2.0 | 3.0 | 0.00 | 0.00 | 0.00 | 78 | 1014.8 |
| 20260905111147 | 66 | 350 | 1.0 | 3.0 | 0.00 | 0.00 | 0.00 | 78 | 1014.8 |
| 20260905110648 | 66 | 350 | 3.0 | 4.0 | 0.00 | 0.00 | 0.00 | 78 | 1014.8 |
| 20260905110147 | 66 | 353 | 3.0 | 4.0 | 0.00 | 0.00 | 0.00 | 79 | 1014.8 |
| 20260905105647 | 66 | 355 | 2.0 | 3.0 | 0.00 | 0.00 | 0.00 | 79 | 1014.8 |
| 20260905105147 | 65 | 355 | 2.0 | 3.0 | 0.00 | 0.00 | 0.00 | 80 | 1014.8 |
| 20260905104648 | 65 | 355 | 2.0 | 3.0 | 0.00 | 0.00 | 0.00 | 79 | 1014.9 |
| 20260905104146 | 65 | 0 | 2.0 | 3.0 | 0.00 | 0.00 | 0.00 | 79 | 1014.9 |
| 20260905103647 | 66 | 8 | 0.0 | 3.0 | 0.00 | 0.00 | 0.00 | 79 | 1014.8 |
| 20260905103147 | 66 | 8 | 2.0 | 3.0 | 0.00 | 0.00 | 0.00 | 80 | 1014.9 |
| 20260905102646 | 66 | 7 | 1.0 | 4.0 | 0.00 | 0.00 | 0.00 | 80 | 1014.9 |
| 20260905102146 | 66 | 7 | 2.0 | 4.0 | 0.00 | 0.00 | 0.00 | 81 | 1014.9 |
| 20260905101646 | 65 | 3 | 2.0 | 3.0 | 0.00 | 0.00 | 0.00 | 82 | 1015.0 |
| 20260905101147 | 65 | 3 | 2.0 | 3.0 | 0.00 | 0.00 | 0.00 | 82 | 1015.0 |
| 20260905100647 | 65 | 350 | 1.0 | 3.0 | 0.00 | 0.00 | 0.00 | 82 | 1015.0 |
| 20260905100147 | 65 | 350 | 1.0 | 3.0 | 0.00 | 0.00 | 0.00 | 82 | 1015.1 |
| 20260905095646 | 65 | 350 | 1.0 | 5.0 | 0.00 | 0.00 | 0.00 | 82 | 1015.0 |
| 20260905095146 | 65 | 316 | 3.0 | 5.0 | 0.00 | 0.00 | 0.00 | 82 | 1015.0 |
| 20260905094911 | 65 | 307 | 3.0 | 5.0 | 0.00 | 0.00 | 0.00 | 81 | 1015.0 |
| 20260905094146 | 65 | 49 | 1.0 | 3.0 | 0.00 | 0.00 | 0.00 | 81 | 1015.0 |
| 20260905093646 | 65 | 49 | 2.0 | 3.0 | 0.00 | 0.00 | 0.00 | 82 | 1015.1 |
| 20260905093144 | 65 | 49 | 0.0 | 4.0 | 0.00 | 0.00 | 0.00 | 82 | 1015.1 |
| 20260905092645 | 65 | 49 | 3.0 | 4.0 | 0.00 | 0.00 | 0.00 | 81 | 1015.2 |
| 20260905092631 | 65 | 351 | 2.0 | 2.0 | 0.00 | 0.00 | 0.00 | 80 | 1015.3 |
| 20260905092136 | 65 | 351 | 0.0 | 1.0 | 0.00 | 0.00 | 0.00 | 80 | 1015.3 |
| 20260905091146 | 65 | 351 | 0.0 | 1.0 | 0.00 | 0.00 | 0.00 | 80 | 1015.2 |
| 20260905090645 | 65 | 351 | 0.0 | 0.0 | 0.00 | 0.00 | 0.00 | 80 | 1015.2 |
| 20260905090404 | 65 | 351 | 0.0 | 2.0 | 0.00 | 0.00 | 0.00 | 80 | 1015.3 |
| 20260905085645 | 65 | 351 | 1.0 | 2.0 | 0.00 | 0.00 | 0.00 | 80 | 1015.3 |
| 20260905085404 | 65 | 351 | 1.0 | 2.0 | 0.00 | 0.00 | 0.00 | 80 | 1015.3 |
| 20260905084645 | 65 | 351 | 0.0 | 0.0 | 0.00 | 0.00 | 0.00 | 80 | 1015.4 |
| 20260905084146 | 65 | 351 | 0.0 | 0.0 | 0.00 | 0.00 | 0.00 | 80 | 1015.4 |
| 20260905083645 | 65 | 351 | 0.0 | 3.0 | 0.00 | 0.00 | 0.00 | 80 | 1015.3 |
| 20260905083145 | 65 | 351 | 1.0 | 3.0 | 0.00 | 0.00 | 0.00 | 80 | 1015.3 |
| 20260905082903 | 66 | 47 | 0.0 | 3.0 | 0.00 | 0.00 | 0.00 | 80 | 1015.3 |
| 20260905082144 | 66 | 47 | 2.0 | 6.0 | 0.00 | 0.00 | 0.00 | 80 | 1015.4 |
| 20260905081904 | 66 | 47 | 1.0 | 6.0 | 0.00 | 0.00 | 0.00 | 80 | 1015.4 |
| 20260905081144 | 66 | 51 | 5.0 | 6.0 | 0.00 | 0.00 | 0.00 | 80 | 1015.5 |
| 20260905080643 | 65 | 41 | 4.0 | 5.0 | 0.00 | 0.00 | 0.00 | 80 | 1015.6 |
| 20260905080144 | 65 | 109 | 3.0 | 10.0 | 0.00 | 0.00 | 0.00 | 80 | 1015.6 |
| 20260905075643 | 65 | 16 | 6.0 | 10.0 | 0.00 | 0.00 | 0.00 | 80 | 1015.7 |
| 20260905075143 | 66 | 45 | 6.0 | 10.0 | 0.00 | 0.00 | 0.00 | 79 | 1015.7 |
| 20260905074642 | 66 | 34 | 6.0 | 10.0 | 0.00 | 0.00 | 0.00 | 79 | 1015.8 |
| 20260905074143 | 67 | 61 | 4.0 | 5.0 | 0.00 | 0.00 | 0.00 | 78 | 1015.7 |
| 20260905073642 | 67 | 48 | 4.0 | 5.0 | 0.00 | 0.00 | 0.00 | 77 | 1015.6 |
| 20260905073143 | 67 | 47 | 3.0 | 4.0 | 0.00 | 0.00 | 0.00 | 76 | 1015.5 |
| 20260905072641 | 68 | 35 | 2.0 | 3.0 | 0.00 | 0.00 | 0.00 | 76 | 1015.6 |
| 20260905072143 | 68 | 35 | 1.0 | 2.0 | 0.00 | 0.00 | 0.00 | 76 | 1015.6 |
| 20260905071643 | 68 | 35 | 1.0 | 2.0 | 0.00 | 0.00 | 0.00 | 76 | 1015.5 |
| 20260905071143 | 68 | 35 | 1.0 | 2.0 | 0.00 | 0.00 | 0.00 | 76 | 1015.5 |
| 20260905070642 | 68 | 35 | 0.0 | 0.0 | 0.00 | 0.00 | 0.00 | 76 | 1015.5 |
| 20260905070403 | 68 | 35 | 0.0 | 3.0 | 0.00 | 0.00 | 0.00 | 76 | 1015.5 |
| 20260905065643 | 68 | 35 | 0.0 | 3.0 | 0.00 | 0.00 | 0.00 | 76 | 1015.5 |
| 20260905065143 | 68 | 35 | 2.0 | 3.0 | 0.00 | 0.00 | 0.00 | 76 | 1015.5 |
| 20260905064642 | 68 | 35 | 2.0 | 3.0 | 0.00 | 0.00 | 0.00 | 75 | 1015.4 |
| 20260905064359 | 68 | 35 | 2.0 | 3.0 | 0.00 | 0.00 | 0.00 | 75 | 1015.4 |
| 20260905063643 | 68 | 35 | 1.0 | 4.0 | 0.00 | 0.00 | 0.00 | 75 | 1015.4 |
| 20260905063143 | 68 | 35 | 2.0 | 4.0 | 0.00 | 0.00 | 0.00 | 75 | 1015.3 |
| 20260905062642 | 69 | 35 | 3.0 | 4.0 | 0.00 | 0.00 | 0.00 | 75 | 1015.3 |
| 20260905062141 | 69 | 37 | 0.0 | 2.0 | 0.00 | 0.00 | 0.00 | 75 | 1015.2 |
| 20260905061642 | 69 | 37 | 0.0 | 0.0 | 0.00 | 0.00 | 0.00 | 75 | 1015.3 |
| 20260905061407 | 69 | 37 | 0.0 | 0.0 | 0.00 | 0.00 | 0.00 | 75 | 1015.3 |
| 20260905060904 | 69 | 37 | 0.0 | 0.0 | 0.00 | 0.00 | 0.00 | 74 | 1015.2 |
| 20260905060626 | 69 | 37 | 0.0 | 0.0 | 0.00 | 0.00 | 0.00 | 74 | 1015.2 |
| 20260905055640 | 69 | 37 | 0.0 | 2.0 | 0.00 | 0.00 | 0.00 | 74 | 1015.2 |
| 20260905055139 | 69 | 37 | 1.0 | 2.0 | 0.00 | 0.00 | 0.00 | 74 | 1015.3 |
| 20260905054859 | 69 | 340 | 1.0 | 2.0 | 0.00 | 0.00 | 0.00 | 74 | 1015.3 |
| 20260905054140 | 69 | 340 | 0.0 | 3.0 | 0.00 | 0.00 | 0.00 | 74 | 1015.3 |
| 20260905053639 | 69 | 340 | 2.0 | 3.0 | 0.00 | 0.00 | 0.00 | 74 | 1015.4 |
| 20260905053358 | 69 | 340 | 1.0 | 4.0 | 0.00 | 0.00 | 0.00 | 75 | 1015.3 |
| 20260905052905 | 69 | 341 | 2.0 | 4.0 | 0.00 | 0.00 | 0.00 | 75 | 1015.3 |
| 20260905052139 | 69 | 6 | 1.0 | 4.0 | 0.00 | 0.00 | 0.00 | 75 | 1015.5 |
| 20260905051638 | 69 | 6 | 1.0 | 4.0 | 0.00 | 0.00 | 0.00 | 75 | 1015.5 |
| 20260905051405 | 69 | 7 | 2.0 | 3.0 | 0.00 | 0.00 | 0.00 | 76 | 1015.6 |
| 20260905050639 | 69 | 7 | 1.0 | 3.0 | 0.00 | 0.00 | 0.00 | 75 | 1015.6 |
| 20260905050406 | 68 | 7 | 2.0 | 3.0 | 0.00 | 0.00 | 0.00 | 75 | 1015.5 |
| 20260905045640 | 69 | 7 | 1.0 | 3.0 | 0.00 | 0.00 | 0.00 | 75 | 1015.6 |
| 20260905045138 | 69 | 6 | 1.0 | 3.0 | 0.00 | 0.00 | 0.00 | 75 | 1015.6 |
| 20260905044640 | 69 | 6 | 1.0 | 2.0 | 0.00 | 0.00 | 0.00 | 75 | 1015.6 |
| 20260905044138 | 69 | 6 | 1.0 | 3.0 | 0.00 | 0.00 | 0.00 | 76 | 1015.6 |
| 20260905043639 | 69 | 6 | 1.0 | 3.0 | 0.00 | 0.00 | 0.00 | 76 | 1015.5 |
| 20260905043358 | 69 | 0 | 2.0 | 3.0 | 0.00 | 0.00 | 0.00 | 76 | 1015.5 |
| 20260905042904 | 68 | 334 | 2.0 | 3.0 | 0.00 | 0.00 | 0.00 | 76 | 1015.4 |
| 20260905042137 | 68 | 323 | 1.0 | 4.0 | 0.00 | 0.00 | 0.00 | 76 | 1015.4 |
| 20260905041640 | 68 | 323 | 0.0 | 5.0 | 0.00 | 0.00 | 0.00 | 76 | 1015.4 |
| 20260905041359 | 68 | 321 | 4.0 | 5.0 | 0.00 | 0.00 | 0.00 | 76 | 1015.3 |
| 20260905040640 | 68 | 321 | 4.0 | 5.0 | 0.00 | 0.00 | 0.00 | 76 | 1015.4 |
| 20260905040137 | 68 | 0 | 2.0 | 3.0 | 0.00 | 0.00 | 0.00 | 76 | 1015.4 |
| 20260905035904 | 68 | 0 | 0.0 | 0.0 | 0.00 | 0.00 | 0.00 | 77 | 1015.4 |
| 20260905035138 | 68 | 0 | 0.0 | 0.0 | 0.00 | 0.00 | 0.00 | 77 | 1015.4 |
| 20260905034638 | 68 | 0 | 0.0 | 1.0 | 0.00 | 0.00 | 0.00 | 77 | 1015.5 |
| 20260905034136 | 68 | 0 | 0.0 | 3.0 | 0.00 | 0.00 | 0.00 | 78 | 1015.5 |
| 20260905033637 | 68 | 0 | 1.0 | 3.0 | 0.00 | 0.00 | 0.00 | 78 | 1015.4 |
| 20260905033136 | 68 | 0 | 0.0 | 0.0 | 0.00 | 0.00 | 0.00 | 78 | 1015.4 |
| 20260905032637 | 67 | 0 | 0.0 | 1.0 | 0.00 | 0.00 | 0.00 | 78 | 1015.3 |
| 20260905032136 | 67 | 0 | 0.0 | 2.0 | 0.00 | 0.00 | 0.00 | 79 | 1015.2 |
| 20260905031638 | 67 | 0 | 0.0 | 2.0 | 0.00 | 0.00 | 0.00 | 80 | 1015.2 |
| 20260905031136 | 67 | 0 | 1.0 | 3.0 | 0.00 | 0.00 | 0.00 | 80 | 1015.2 |
| 20260905030637 | 67 | 0 | 2.0 | 3.0 | 0.00 | 0.00 | 0.00 | 81 | 1015.1 |
| 20260905030136 | 67 | 0 | 2.0 | 3.0 | 0.00 | 0.00 | 0.00 | 81 | 1015.1 |
| 20260905025859 | 68 | 0 | 2.0 | 3.0 | 0.00 | 0.00 | 0.00 | 80 | 1015.1 |
| 20260905025136 | 68 | 0 | 2.0 | 3.0 | 0.00 | 0.00 | 0.00 | 79 | 1015.1 |
| 20260905024635 | 69 | 220 | 2.0 | 3.0 | 0.00 | 0.00 | 0.00 | 77 | 1015.1 |
| 20260905024136 | 69 | 220 | 0.0 | 1.0 | 0.00 | 0.00 | 0.00 | 76 | 1015.0 |
| 20260905023636 | 69 | 220 | 0.0 | 2.0 | 0.00 | 0.00 | 0.00 | 75 | 1015.1 |
| 20260905023135 | 69 | 220 | 1.0 | 3.0 | 0.00 | 0.00 | 0.00 | 75 | 1015.1 |
| 20260905022635 | 69 | 220 | 2.0 | 3.0 | 0.00 | 0.00 | 0.00 | 75 | 1015.1 |
| 20260905022400 | 69 | 220 | 2.0 | 3.0 | 0.00 | 0.00 | 0.00 | 75 | 1015.3 |
| 20260905021635 | 70 | 220 | 1.0 | 3.0 | 0.00 | 0.00 | 0.00 | 75 | 1015.2 |
| 20260905021135 | 70 | 220 | 2.0 | 3.0 | 0.00 | 0.00 | 0.00 | 75 | 1015.2 |
| 20260905020635 | 70 | 220 | 1.0 | 4.0 | 0.00 | 0.00 | 0.00 | 76 | 1015.2 |
| 20260905020135 | 70 | 220 | 2.0 | 5.0 | 0.00 | 0.00 | 0.00 | 76 | 1015.3 |
| 20260905015903 | 71 | 224 | 3.0 | 6.0 | 0.00 | 0.00 | 0.00 | 75 | 1015.3 |
| 20260905015135 | 71 | 226 | 4.0 | 6.0 | 0.00 | 0.00 | 0.00 | 74 | 1015.3 |
| 20260905014856 | 72 | 216 | 4.0 | 6.0 | 0.00 | 0.00 | 0.00 | 73 | 1015.4 |
| 20260905014134 | 73 | 195 | 3.0 | 5.0 | 0.00 | 0.00 | 0.00 | 73 | 1015.5 |
| 20260905013634 | 73 | 202 | 3.0 | 4.0 | 0.00 | 0.00 | 0.00 | 72 | 1015.6 |
| 20260905013134 | 74 | 178 | 2.0 | 6.0 | 0.00 | 0.00 | 0.00 | 72 | 1015.7 |
| 20260905012635 | 74 | 183 | 4.0 | 6.0 | 0.00 | 0.00 | 0.00 | 71 | 1015.7 |
| 20260905012136 | 74 | 140 | 2.0 | 4.0 | 0.00 | 0.00 | 0.00 | 71 | 1015.7 |
| 20260905011635 | 74 | 149 | 3.0 | 7.0 | 0.00 | 0.00 | 0.00 | 70 | 1015.7 |
| 20260905011135 | 74 | 190 | 4.0 | 7.0 | 0.00 | 0.00 | 0.00 | 68 | 1015.7 |
| 20260905011121 | 74 | 190 | 5.0 | 7.0 | 0.00 | 0.00 | 0.00 | 68 | 1015.7 |
| 20260905010136 | 74 | 147 | 4.0 | 6.0 | 0.00 | 0.00 | 0.00 | 68 | 1015.6 |
| 20260905005634 | 75 | 161 | 4.0 | 9.0 | 0.00 | 0.00 | 0.00 | 67 | 1015.6 |
| 20260905005136 | 75 | 180 | 4.0 | 9.0 | 0.00 | 0.00 | 0.00 | 67 | 1015.7 |
| 20260905004634 | 76 | 159 | 6.0 | 9.0 | 0.00 | 0.00 | 0.00 | 66 | 1015.7 |
| 20260905004134 | 77 | 145 | 4.0 | 6.0 | 0.00 | 0.00 | 0.00 | 67 | 1015.6 |
| 20260905003852 | 76 | 142 | 3.0 | 9.0 | 0.00 | 0.00 | 0.00 | 67 | 1015.5 |
| 20260905003356 | 76 | 148 | 3.0 | 9.0 | 0.00 | 0.00 | 0.00 | 68 | 1015.5 |
| 20260905002631 | 76 | 178 | 4.0 | 11.0 | 0.00 | 0.00 | 0.00 | 66 | 1015.4 |
| 20260905002132 | 76 | 178 | 7.0 | 11.0 | 0.00 | 0.00 | 0.00 | 65 | 1015.4 |
| 20260905001632 | 76 | 178 | 4.0 | 10.0 | 0.00 | 0.00 | 0.00 | 66 | 1015.5 |
| 20260905001403 | 75 | 199 | 7.0 | 11.0 | 0.00 | 0.00 | 0.00 | 64 | 1015.6 |
| 20260905000632 | 76 | 189 | 6.0 | 11.0 | 0.00 | 0.00 | 0.00 | 64 | 1015.6 |
| 20260905000131 | 76 | 186 | 8.0 | 10.0 | 0.00 | 0.00 | 0.00 | 64 | 1015.6 |
| 20260904235631 | 76 | 175 | 5.0 | 7.0 | 0.00 | 0.00 | 0.00 | 66 | 1015.8 |
| 20260904235616 | 76 | 148 | 6.0 | 9.0 | 0.00 | 0.00 | 0.00 | 64 | 1015.8 |
| 20260904234629 | 77 | 175 | 5.0 | 9.0 | 0.00 | 0.00 | 0.00 | 63 | 1015.8 |
| 20260904234349 | 77 | 159 | 5.0 | 9.0 | 0.00 | 0.00 | 0.00 | 62 | 1015.7 |
| 20260904233619 | 78 | 172 | 6.0 | 9.0 | 0.00 | 0.00 | 0.00 | 60 | 1015.8 |
| 20260904233117 | 78 | 171 | 5.0 | 7.0 | 0.00 | 0.00 | 0.00 | 61 | 1015.7 |
| 20260904232837 | 78 | 127 | 4.0 | 10.0 | 0.00 | 0.00 | 0.00 | 61 | 1015.7 |
| 20260904232114 | 78 | 171 | 6.0 | 12.0 | 0.00 | 0.00 | 0.00 | 62 | 1015.6 |
| 20260904231613 | 78 | 189 | 7.0 | 12.0 | 0.00 | 0.00 | 0.00 | 61 | 1015.7 |
| 20260904231112 | 77 | 159 | 5.0 | 12.0 | 0.00 | 0.00 | 0.00 | 62 | 1015.6 |
| 20260904230602 | 77 | 202 | 8.0 | 12.0 | 0.00 | 0.00 | 0.00 | 61 | 1015.7 |
| 20260904230334 | 77 | 166 | 5.0 | 11.0 | 0.00 | 0.00 | 0.00 | 63 | 1015.8 |
| 20260904225602 | 77 | 151 | 6.0 | 10.0 | 0.00 | 0.00 | 0.00 | 60 | 1015.7 |
| 20260904225104 | 77 | 166 | 5.0 | 10.0 | 0.00 | 0.00 | 0.00 | 62 | 1015.8 |
| 20260904224602 | 78 | 176 | 6.0 | 10.0 | 0.00 | 0.00 | 0.00 | 60 | 1015.9 |
| 20260904224103 | 78 | 166 | 7.0 | 10.0 | 0.00 | 0.00 | 0.00 | 60 | 1015.9 |
| 20260904223602 | 78 | 176 | 6.0 | 11.0 | 0.00 | 0.00 | 0.00 | 58 | 1015.9 |
| 20260904223103 | 78 | 193 | 5.0 | 11.0 | 0.00 | 0.00 | 0.00 | 57 | 1015.9 |
| 20260904222603 | 80 | 175 | 6.0 | 11.0 | 0.00 | 0.00 | 0.00 | 56 | 1016.0 |
| 20260904222103 | 80 | 127 | 6.0 | 11.0 | 0.00 | 0.00 | 0.00 | 56 | 1016.0 |
| 20260904221602 | 81 | 140 | 5.0 | 10.0 | 0.00 | 0.00 | 0.00 | 56 | 1015.9 |
| 20260904221325 | 81 | 159 | 3.0 | 6.0 | 0.00 | 0.00 | 0.00 | 56 | 1016.0 |
| 20260904220602 | 80 | 157 | 4.0 | 11.0 | 0.00 | 0.00 | 0.00 | 56 | 1016.0 |
| 20260904215532 | 81 | 144 | 3.0 | 9.0 | 0.00 | 0.00 | 0.00 | 57 | 1015.9 |
| 20260904215032 | 81 | 145 | 5.0 | 9.0 | 0.00 | 0.00 | 0.00 | 56 | 1016.1 |
| 20260904214529 | 82 | 144 | 4.0 | 7.0 | 0.00 | 0.00 | 0.00 | 55 | 1016.2 |
| 20260904214030 | 81 | 134 | 4.0 | 6.0 | 0.00 | 0.00 | 0.00 | 57 | 1016.1 |
| 20260904213755 | 81 | 97 | 3.0 | 9.0 | 0.00 | 0.00 | 0.00 | 57 | 1016.1 |
| 20260904213030 | 80 | 102 | 2.0 | 9.0 | 0.00 | 0.00 | 0.00 | 58 | 1016.1 |
| 20260904212751 | 80 | 131 | 3.0 | 9.0 | 0.00 | 0.00 | 0.00 | 59 | 1016.2 |
| 20260904212029 | 80 | 130 | 3.0 | 10.0 | 0.00 | 0.00 | 0.00 | 60 | 1016.2 |
| 20260904211528 | 80 | 137 | 4.0 | 10.0 | 0.00 | 0.00 | 0.00 | 60 | 1016.3 |
| 20260904211029 | 80 | 133 | 3.0 | 7.0 | 0.00 | 0.00 | 0.00 | 60 | 1016.3 |
| 20260904210528 | 80 | 127 | 4.0 | 7.0 | 0.00 | 0.00 | 0.00 | 60 | 1016.3 |
| 20260904210029 | 80 | 133 | 2.0 | 7.0 | 0.00 | 0.00 | 0.00 | 59 | 1016.3 |
| 20260904205752 | 80 | 124 | 3.0 | 7.0 | 0.00 | 0.00 | 0.00 | 60 | 1016.3 |
| 20260904205509 | 80 | 123 | 4.0 | 7.0 | 0.00 | 0.00 | 0.00 | 61 | 1016.4 |